TimePST,TemperatureF,Dew PointF,Humidity,Sea Level PressureIn,VisibilityMPH,Wind Direction,Wind SpeedMPH,Gust SpeedMPH,PrecipitationIn,Events,Conditions,WindDirDegrees,DateUTC
12:00 AM,40.3,-9999,N/A,30.11,-9999.0,East,5.8,-,N/A,,Unknown,80,2013-01-08 08:00:00
1:00 AM,40,,,30.09,,ENE,6.9,,,,,60,2013-01-08 09:00:00
1:00 AM,40.3,-9999,N/A,30.09,-9999.0,ENE,6.9,-,N/A,,Unknown,60,2013-01-08 09:00:00
2:00 AM,40.1,-9999,N/A,30.08,-9999.0,NE,6.9,-,N/A,,Unknown,50,2013-01-08 10:00:00
3:00 AM,39.9,-9999,N/A,30.08,-9999.0,ENE,6.9,-,N/A,,Unknown,70,2013-01-08 11:00:00
4:00 AM,40,,,30.04,,East,8.1,,,,,80,2013-01-08 12:00:00
4:00 AM,40.3,-9999,N/A,30.04,-9999.0,East,8.1,-,N/A,,Unknown,80,2013-01-08 12:00:00
5:00 AM,41.9,-9999,N/A,30.00,-9999.0,ENE,8.1,-,N/A,,Unknown,70,2013-01-08 13:00:00
6:00 AM,42.4,-9999,N/A,29.96,-9999.0,ENE,9.2,20.7,0.02,,Unknown,70,2013-01-08 14:00:00
7:00 AM,41,,,29.91,,East,13.8,,,,,90,2013-01-08 15:00:00
7:00 AM,41.2,-9999,N/A,29.91,-9999.0,East,13.8,25.3,0.04,,Unknown,90,2013-01-08 15:00:00
8:00 AM,40.3,-9999,N/A,29.88,-9999.0,East,8.1,-,0.02,,Unknown,80,2013-01-08 16:00:00
9:00 AM,40.1,-9999,N/A,29.85,-9999.0,East,9.2,19.6,0.06,,Unknown,80,2013-01-08 17:00:00
10:00 AM,40,,,29.79,,East,11.5,,,,,80,2013-01-08 18:00:00
10:00 AM,40.3,-9999,N/A,29.79,-9999.0,East,11.5,24.2,0.03,,Unknown,80,2013-01-08 18:00:00
11:00 AM,41.5,-9999,N/A,29.74,-9999.0,East,19.6,29.9,0.05,,Unknown,100,2013-01-08 19:00:00
12:00 PM,42.6,-9999,N/A,29.70,-9999.0,East,13.8,27.6,0.05,,Unknown,100,2013-01-08 20:00:00
1:00 PM,43,,,29.63,,East,16.1,,,,,80,2013-01-08 21:00:00
1:00 PM,43.3,-9999,N/A,29.63,-9999.0,East,16.1,32.2,0.11,,Unknown,80,2013-01-08 21:00:00
2:00 PM,44.2,-9999,N/A,29.59,-9999.0,East,18.4,32.2,0.11,,Unknown,90,2013-01-08 22:00:00
3:00 PM,45.1,-9999,N/A,29.57,-9999.0,East,19.6,29.9,0.13,,Unknown,100,2013-01-08 23:00:00
4:00 PM,49,,,,,SSE,23.0,,,,,160,2013-01-09 00:00:00
4:00 PM,48.7,-9999,N/A,29.53,-9999.0,SSE,23.0,-,0.05,,Unknown,160,2013-01-09 00:00:00
5:00 PM,48.9,-9999,N/A,29.49,-9999.0,South,27.6,34.5,N/A,,Unknown,170,2013-01-09 01:00:00
6:00 PM,48.0,-9999,N/A,29.49,-9999.0,South,31.1,41.4,N/A,,Unknown,180,2013-01-09 02:00:00
7:00 PM,47,,,29.51,,SSW,29.9,,,,,210,2013-01-09 03:00:00
8:00 PM,45.3,-9999,N/A,29.54,-9999.0,WSW,24.2,-,N/A,,Unknown,240,2013-01-09 04:00:00
9:00 PM,45.7,-9999,N/A,29.59,-9999.0,WSW,23.0,29.9,N/A,,Unknown,250,2013-01-09 05:00:00
11:00 PM,44.6,-9999,N/A,29.63,-9999.0,WSW,18.4,-,N/A,,Unknown,250,2013-01-09 07:00:00